Home   Weather   Boston   Past weeks
Flag for USA

Past Weather in Boston, Massachusetts, USA — Yesterday and Last 2 Weeks

Now
29 °F

Broken clouds.


Feels Like: 24 °F
Forecast: 21 / 33 °F
Wind: 5 mph from North

Location: Logan International Airport

Current Time: Dec 13, 2018 at 10:38:17 am

Latest Report: Dec 13, 2018 at 9:54 am


Visibility: 10 mi

Pressure: 30.53 "Hg

Humidity: 54%

Dew Point: 14 °F

Location of BostonLocation

Past Weather in Boston — Graph

°F

Boston Temperature Yesterday

Maximum temperature yesterday: 38 °F (at 11:54 am)
Minimum temperature yesterday: 24 °F (at 11:54 pm)
Average temperature yesterday: 32 °F

High & Low Weather Summary for the Past Weeks

 TemperatureHumidityPressure
High57 °F (Dec 3, 10:54 am)96% (Dec 3, 1:51 am)30.52 "Hg (Dec 3, 1:51 am)
Low20 °F (Dec 8, 6:54 am)21% (Dec 8, 1:54 pm)29.26 "Hg (Nov 28, 12:54 pm)
Average36 °F57%30.00 "Hg
* Reported Nov 28 8:54 am — Dec 13 8:54 am, Boston. Weather by CustomWeather, © 2018

Note: Actual official high and low records may vary slightly from our data, if they occured in-between our weather recording intervals... More about our weather records

Advertising

Boston Weather History for the Previous 24 Hours

Scroll right to see more
 ConditionsComfort  
Time TempWeatherWind HumidityBarometerVisibility
8:54 am
Thu, Dec 13
25 °FBroken clouds.7 mph58%30.52 "Hg10 mi
7:54 am22 °FPartly sunny.10 mph60%30.51 "Hg10 mi
6:54 am21 °FPartly cloudy.8 mph60%30.48 "Hg10 mi
5:54 am21 °FMostly cloudy.10 mph57%30.46 "Hg10 mi
4:54 am21 °FMostly cloudy.9 mph55%30.44 "Hg10 mi
3:54 am21 °FPassing clouds.9 mph55%30.42 "Hg10 mi
2:54 am21 °FPassing clouds.12 mph52%30.41 "Hg10 mi
1:54 am22 °FPassing clouds.10 mph48%30.39 "Hg10 mi
12:54 am23 °FPassing clouds.7 mph44%30.37 "Hg10 mi
11:54 pm
Wed, Dec 12
24 °FPassing clouds.6 mph42%30.35 "Hg10 mi
10:54 pm25 °FPassing clouds.9 mph40%30.34 "Hg10 mi
9:54 pm26 °FPassing clouds.7 mph37%30.32 "Hg10 mi
8:54 pm27 °FPassing clouds.13 mph37%30.27 "Hg10 mi
7:54 pm29 °FPassing clouds.14 mph36%30.25 "Hg10 mi
6:54 pm30 °FPassing clouds.14 mph36%30.24 "Hg10 mi
5:54 pm32 °FPassing clouds.15 mph35%30.19 "Hg10 mi
4:54 pm33 °FPassing clouds.14 mph33%30.15 "Hg10 mi
3:54 pm36 °FScattered clouds.17 mph34%30.11 "Hg10 mi
2:54 pm38 °FPassing clouds.15 mph33%30.07 "Hg10 mi
1:54 pm38 °FPassing clouds.17 mph31%30.05 "Hg10 mi
12:54 pm38 °FPassing clouds.16 mph31%30.04 "Hg10 mi
11:54 am38 °FPassing clouds.22 mph37%30.02 "Hg10 mi
10:54 am37 °FPassing clouds.14 mph44%30.02 "Hg10 mi
Weather by CustomWeather, © 2018

See weather overview